"read_dt","SO2 (ppb)","flags","PMT voltage (V)","lamp voltage (V)","lamp intensity (Hz)","internal temp (C)","react chamber temp (C)","sample flow (l/min)","pres (mmHg)","SO2 bkg (ppb)","SO2 coefficient"
2014-08-16 00:00:00,1878E-3,5C000000,-0724,0828,12311,030.5,045.6,0.471,726.1,01.19,0.508
2014-08-16 00:01:00,1781E-3,5C000000,-0724,0828,12357,030.4,045.6,0.470,726.0,01.19,0.508
2014-08-16 00:02:00,1886E-3,5C000000,-0724,0829,12319,030.4,045.6,0.470,726.0,01.19,0.508
2014-08-16 00:03:00,1781E-3,5C000000,-0724,0828,12231,030.4,045.6,0.471,726.0,01.19,0.508
2014-08-16 00:04:00,1767E-3,5C000000,-0724,0828,12171,030.4,045.6,0.471,726.0,01.19,0.508
2014-08-16 00:05:00,1912E-3,5C000000,-0724,0827,11990,030.3,045.6,0.471,726.0,01.19,0.508
2014-08-16 00:06:00,1681E-3,5C000000,-0724,0828,12320,030.3,045.6,0.471,726.0,01.19,0.508
2014-08-16 00:07:00,1822E-3,5C000000,-0724,0828,12202,030.3,045.6,0.471,726.0,01.19,0.508
2014-08-16 00:08:00,1705E-3,5C000000,-0724,0829,12225,030.3,045.6,0.471,726.0,01.19,0.508
2014-08-16 00:09:00,1828E-3,5C000000,-0724,0828,12379,030.3,045.6,0.471,726.0,01.19,0.508
2014-08-16 00:10:00,1861E-3,5C000000,-0724,0828,12282,030.2,045.6,0.471,726.0,01.19,0.508
2014-08-16 00:11:00,1741E-3,5C000000,-0724,0828,12327,030.2,045.6,0.471,726.1,01.19,0.508
2014-08-16 00:12:00,1847E-3,5C000000,-0724,0828,12242,030.2,045.6,0.471,726.1,01.19,0.508
2014-08-16 00:13:00,1736E-3,5C000000,-0724,0829,12266,030.2,045.6,0.471,726.0,01.19,0.508
2014-08-16 00:14:00,1922E-3,5C000000,-0724,0828,12150,030.2,045.5,0.471,726.1,01.19,0.508
2014-08-16 00:15:00,1748E-3,5C000000,-0724,0828,12086,030.2,045.5,0.471,726.1,01.19,0.508
2014-08-16 00:16:00,1790E-3,5C000000,-0724,0829,12220,030.2,045.6,0.471,726.1,01.19,0.508
2014-08-16 00:17:00,1841E-3,5C000000,-0724,0829,12245,030.2,045.5,0.471,726.1,01.19,0.508
2014-08-16 00:18:00,1751E-3,5C000000,-0724,0828,12196,030.2,045.5,0.471,726.1,01.19,0.508
2014-08-16 00:19:00,1933E-3,5C000000,-0724,0828,12236,030.2,045.6,0.471,726.1,01.19,0.508
2014-08-16 00:20:00,1879E-3,5C000000,-0724,0827,12136,030.2,045.6,0.471,726.1,01.19,0.508
2014-08-16 00:21:00,1795E-3,5C000000,-0724,0828,12347,030.2,045.6,0.471,726.1,01.19,0.508
2014-08-16 00:22:00,1843E-3,5C000000,-0724,0829,12189,030.2,045.6,0.471,726.1,01.19,0.508
2014-08-16 00:23:00,1981E-3,5C000000,-0724,0827,12332,030.2,045.5,0.471,726.1,01.19,0.508
2014-08-16 00:24:00,1820E-3,5C000000,-0724,0828,12298,030.2,045.6,0.471,726.1,01.19,0.508
2014-08-16 00:25:00,1788E-3,5C000000,-0724,0828,12164,030.2,045.6,0.471,726.1,01.19,0.508
2014-08-16 00:26:00,1756E-3,5C000000,-0724,0827,12131,030.2,045.6,0.471,726.1,01.19,0.508
2014-08-16 00:27:00,1672E-3,5C000000,-0724,0828,12161,030.2,045.5,0.471,726.2,01.19,0.508
2014-08-16 00:28:00,1705E-3,5C000000,-0724,0829,12339,030.2,045.5,0.471,726.2,01.19,0.508
2014-08-16 00:29:00,1777E-3,5C000000,-0724,0828,12218,030.2,045.6,0.471,726.1,01.19,0.508
2014-08-16 00:30:00,1789E-3,5C000000,-0724,0828,12209,030.2,045.6,0.471,726.2,01.19,0.508
2014-08-16 00:31:00,1790E-3,5C000000,-0724,0828,12230,030.2,045.6,0.471,726.2,01.19,0.508
2014-08-16 00:32:00,1763E-3,5C000000,-0724,0828,12306,030.2,045.6,0.471,726.1,01.19,0.508
2014-08-16 00:33:00,1843E-3,5C000000,-0724,0827,12224,030.2,045.5,0.471,726.2,01.19,0.508
2014-08-16 00:34:00,1691E-3,5C000000,-0724,0828,12260,030.2,045.5,0.471,726.1,01.19,0.508
2014-08-16 00:35:00,1649E-3,5C000000,-0724,0828,12342,030.2,045.6,0.471,726.2,01.19,0.508
2014-08-16 00:36:00,1744E-3,5C000000,-0724,0828,12228,030.2,045.6,0.471,726.1,01.19,0.508
2014-08-16 00:37:00,1816E-3,5C000000,-0724,0829,12323,030.2,045.6,0.471,726.1,01.19,0.508
2014-08-16 00:38:00,1886E-3,5C000000,-0724,0829,12102,030.2,045.6,0.471,726.1,01.19,0.508
2014-08-16 00:39:00,1812E-3,5C000000,-0724,0829,12236,030.3,045.6,0.471,726.1,01.19,0.508
2014-08-16 00:40:00,1680E-3,5C000000,-0724,0828,12184,030.3,045.6,0.471,726.1,01.19,0.508
2014-08-16 00:41:00,1772E-3,5C000000,-0724,0829,12131,030.2,045.6,0.471,726.1,01.19,0.508
2014-08-16 00:42:00,1893E-3,5C000000,-0724,0829,12231,030.3,045.6,0.471,726.1,01.19,0.508
2014-08-16 00:43:00,1792E-3,5C000000,-0724,0828,12156,030.3,045.6,0.471,726.1,01.19,0.508
2014-08-16 00:44:00,1854E-3,5C000000,-0724,0827,12069,030.3,045.6,0.471,726.1,01.19,0.508
2014-08-16 00:45:00,1870E-3,5C000000,-0724,0828,12162,030.3,045.6,0.471,726.1,01.19,0.508
2014-08-16 00:46:00,1806E-3,5C000000,-0724,0828,12047,030.3,045.6,0.471,726.0,01.19,0.508
2014-08-16 00:47:00,1817E-3,5C000000,-0724,0829,12184,030.3,045.5,0.471,726.1,01.19,0.508
2014-08-16 00:48:00,1882E-3,5C000000,-0724,0828,11921,030.3,045.6,0.471,726.0,01.19,0.508
2014-08-16 00:49:00,1807E-3,5C000000,-0724,0827,12256,030.3,045.6,0.471,726.0,01.19,0.508
2014-08-16 00:50:00,1898E-3,5C000000,-0724,0829,12296,030.3,045.6,0.471,726.1,01.19,0.508
2014-08-16 00:51:00,1840E-3,5C000000,-0724,0827,12206,030.3,045.5,0.471,726.1,01.19,0.508
2014-08-16 00:52:00,1853E-3,5C000000,-0724,0829,12219,030.3,045.6,0.471,726.1,01.19,0.508
2014-08-16 00:53:00,1819E-3,5C000000,-0724,0829,12379,030.3,045.6,0.471,726.1,01.19,0.508
2014-08-16 00:54:00,1719E-3,5C000000,-0724,0829,12178,030.3,045.6,0.471,726.1,01.19,0.508
2014-08-16 00:55:00,1850E-3,5C000000,-0724,0829,12156,030.3,045.5,0.471,726.1,01.19,0.508
2014-08-16 00:56:00,1869E-3,5C000000,-0724,0829,12127,030.3,045.6,0.470,726.1,01.19,0.508
2014-08-16 00:57:00,1947E-3,5C000000,-0724,0830,12319,030.3,045.6,0.471,726.0,01.19,0.508
2014-08-16 00:58:00,1833E-3,5C000000,-0724,0829,12212,030.4,045.6,0.471,726.1,01.19,0.508
2014-08-16 00:59:00,1722E-3,5C000000,-0724,0829,12133,030.4,045.5,0.471,726.0,01.19,0.508
2014-08-16 01:00:00,1796E-3,5C000000,-0724,0829,12179,030.4,045.6,0.470,726.1,01.19,0.508
2014-08-16 01:01:00,1766E-3,5C000000,-0724,0828,12332,030.4,045.6,0.471,726.1,01.19,0.508
2014-08-16 01:02:00,1771E-3,5C000000,-0724,0829,12208,030.4,045.6,0.471,726.1,01.19,0.508
2014-08-16 01:03:00,1821E-3,5C000000,-0724,0829,12169,030.4,045.6,0.471,726.1,01.19,0.508
2014-08-16 01:04:00,1889E-3,5C000000,-0724,0829,12261,030.4,045.6,0.471,726.1,01.19,0.508
2014-08-16 01:05:00,1927E-3,5C000000,-0724,0829,12178,030.4,045.6,0.471,726.1,01.19,0.508
2014-08-16 01:06:00,1864E-3,5C000000,-0724,0829,12127,030.4,045.5,0.471,726.1,01.19,0.508
2014-08-16 01:07:00,1864E-3,5C000000,-0724,0828,12356,030.4,045.6,0.471,726.1,01.19,0.508
2014-08-16 01:08:00,1897E-3,5C000000,-0724,0829,12180,030.4,045.6,0.470,726.1,01.19,0.508
2014-08-16 01:09:00,1794E-3,5C000000,-0724,0829,12261,030.4,045.6,0.471,726.1,01.19,0.508
2014-08-16 01:10:00,1879E-3,5C000000,-0724,0828,12228,030.4,045.5,0.471,726.2,01.19,0.508
2014-08-16 01:11:00,1786E-3,5C000000,-0724,0829,12244,030.4,045.6,0.471,726.1,01.19,0.508
2014-08-16 01:12:00,1832E-3,5C000000,-0724,0829,12304,030.4,045.5,0.470,726.2,01.19,0.508
2014-08-16 01:13:00,1820E-3,5C000000,-0724,0829,12106,030.4,045.6,0.471,726.2,01.19,0.508
2014-08-16 01:14:00,1816E-3,5C000000,-0724,0829,12124,030.4,045.6,0.471,726.0,01.19,0.508
2014-08-16 01:15:00,1866E-3,5C000000,-0724,0828,12091,030.4,045.6,0.471,726.1,01.19,0.508
2014-08-16 01:16:00,1906E-3,5C000000,-0724,0828,12214,030.4,045.6,0.471,726.1,01.19,0.508
2014-08-16 01:17:00,1820E-3,5C000000,-0724,0829,12355,030.4,045.6,0.471,726.1,01.19,0.508
2014-08-16 01:18:00,1884E-3,5C000000,-0724,0829,12217,030.4,045.6,0.471,726.1,01.19,0.508
2014-08-16 01:19:00,1851E-3,5C000000,-0724,0828,12246,030.5,045.6,0.471,726.2,01.19,0.508
2014-08-16 01:20:00,1808E-3,5C000000,-0724,0829,12078,030.4,045.6,0.471,726.1,01.19,0.508
2014-08-16 01:21:00,1844E-3,5C000000,-0724,0829,12350,030.4,045.6,0.470,726.1,01.19,0.508
2014-08-16 01:22:00,1816E-3,5C000000,-0724,0829,12257,030.4,045.6,0.471,726.1,01.19,0.508
2014-08-16 01:23:00,1761E-3,5C000000,-0724,0828,12146,030.4,045.6,0.471,726.1,01.19,0.508
2014-08-16 01:24:00,1827E-3,5C000000,-0724,0829,12097,030.5,045.6,0.471,726.2,01.19,0.508
2014-08-16 01:25:00,1767E-3,5C000000,-0724,0829,12355,030.5,045.5,0.470,726.1,01.19,0.508
2014-08-16 01:26:00,1792E-3,5C000000,-0724,0829,12320,030.5,045.6,0.471,726.2,01.19,0.508
2014-08-16 01:27:00,1855E-3,5C000000,-0724,0829,12254,030.5,045.6,0.471,726.1,01.19,0.508
2014-08-16 01:28:00,1830E-3,5C000000,-0724,0828,12160,030.5,045.6,0.471,726.2,01.19,0.508
2014-08-16 01:29:00,1757E-3,5C000000,-0724,0828,12104,030.5,045.6,0.470,726.2,01.19,0.508
2014-08-16 01:30:00,1710E-3,5C000000,-0724,0829,12206,030.5,045.6,0.470,726.2,01.19,0.508
2014-08-16 01:31:00,1847E-3,5C000000,-0724,0828,12285,030.5,045.6,0.471,726.2,01.19,0.508
2014-08-16 01:32:00,1776E-3,5C000000,-0724,0828,12305,030.5,045.6,0.471,726.2,01.19,0.508
2014-08-16 01:33:00,1841E-3,5C000000,-0724,0829,12093,030.5,045.6,0.471,726.3,01.19,0.508
2014-08-16 01:34:00,1779E-3,5C000000,-0724,0828,12173,030.5,045.6,0.470,726.2,01.19,0.508
2014-08-16 01:35:00,1845E-3,5C000000,-0724,0829,12279,030.5,045.6,0.471,726.2,01.19,0.508
2014-08-16 01:36:00,1774E-3,5C000000,-0724,0828,12360,030.5,045.6,0.471,726.2,01.19,0.508
2014-08-16 01:37:00,1739E-3,5C000000,-0724,0828,12330,030.5,045.6,0.471,726.2,01.19,0.508
2014-08-16 01:38:00,1753E-3,5C000000,-0724,0829,12170,030.5,045.6,0.470,726.3,01.19,0.508
2014-08-16 01:39:00,1895E-3,5C000000,-0724,0828,12108,030.5,045.6,0.470,726.2,01.19,0.508
2014-08-16 01:40:00,1843E-3,5C000000,-0724,0828,12234,030.5,045.6,0.471,726.2,01.19,0.508
2014-08-16 01:41:00,1822E-3,5C000000,-0724,0829,12375,030.5,045.6,0.471,726.2,01.19,0.508
2014-08-16 01:42:00,1814E-3,5C000000,-0724,0829,12134,030.5,045.6,0.471,726.2,01.19,0.508
2014-08-16 01:43:00,1962E-3,5C000000,-0724,0827,12295,030.5,045.6,0.470,726.2,01.19,0.508
2014-08-16 01:44:00,1895E-3,5C000000,-0724,0827,12188,030.5,045.6,0.471,726.2,01.19,0.508
2014-08-16 01:45:00,1792E-3,5C000000,-0724,0828,12116,030.5,045.6,0.471,726.2,01.19,0.508
2014-08-16 01:46:00,1768E-3,5C000000,-0724,0828,12088,030.5,045.6,0.471,726.2,01.19,0.508
2014-08-16 01:47:00,1743E-3,5C000000,-0724,0829,12140,030.5,045.6,0.470,726.2,01.19,0.508
2014-08-16 01:48:00,1863E-3,5C000000,-0724,0829,12286,030.6,045.6,0.470,726.2,01.19,0.508
2014-08-16 01:49:00,1798E-3,5C000000,-0724,0828,12180,030.6,045.6,0.470,726.2,01.19,0.508
2014-08-16 01:50:00,1866E-3,5C000000,-0724,0829,12269,030.6,045.6,0.471,726.2,01.19,0.508
2014-08-16 01:51:00,1979E-3,5C000000,-0724,0829,12395,030.6,045.6,0.471,726.2,01.19,0.508
2014-08-16 01:52:00,1829E-3,5C000000,-0724,0828,12098,030.6,045.6,0.471,726.2,01.19,0.508
2014-08-16 01:53:00,1638E-3,5C000000,-0724,0828,12320,030.5,045.6,0.470,726.1,01.19,0.508
2014-08-16 01:54:00,1878E-3,5C000000,-0724,0829,12101,030.6,045.6,0.470,726.2,01.19,0.508
2014-08-16 01:55:00,1889E-3,5C000000,-0724,0829,12018,030.6,045.6,0.471,726.2,01.19,0.508
2014-08-16 01:56:00,1854E-3,5C000000,-0724,0827,12205,030.6,045.6,0.471,726.2,01.19,0.508
2014-08-16 01:57:00,1883E-3,5C000000,-0724,0828,12129,030.6,045.6,0.471,726.2,01.19,0.508
2014-08-16 01:58:00,1761E-3,5C000000,-0724,0829,12094,030.6,045.5,0.470,726.2,01.19,0.508
2014-08-16 01:59:00,1841E-3,5C000000,-0724,0829,11794,030.6,045.6,0.470,726.2,01.19,0.508
2014-08-16 02:00:00,1870E-3,5C000000,-0724,0828,12159,030.6,045.6,0.471,726.2,01.19,0.508
2014-08-16 02:01:00,1910E-3,5C000000,-0724,0830,12214,030.6,045.6,0.471,726.2,01.19,0.508
2014-08-16 02:02:00,1839E-3,5C000000,-0724,0829,12175,030.6,045.6,0.471,726.2,01.19,0.508
2014-08-16 02:03:00,1699E-3,5C000000,-0724,0829,12145,030.6,045.6,0.470,726.3,01.19,0.508
2014-08-16 02:04:00,1795E-3,5C000000,-0724,0828,12333,030.6,045.6,0.470,726.2,01.19,0.508
2014-08-16 02:05:00,1825E-3,5C000000,-0724,0829,12297,030.6,045.6,0.471,726.2,01.19,0.508
2014-08-16 02:06:00,1802E-3,5C000000,-0724,0829,12108,030.6,045.6,0.471,726.3,01.19,0.508
2014-08-16 02:07:00,1878E-3,5C000000,-0724,0828,12324,030.6,045.6,0.471,726.2,01.19,0.508
2014-08-16 02:08:00,1874E-3,5C000000,-0724,0829,12284,030.5,045.5,0.471,726.3,01.19,0.508
2014-08-16 02:09:00,1869E-3,5C000000,-0724,0829,12262,030.5,045.5,0.470,726.2,01.19,0.508
2014-08-16 02:10:00,1882E-3,5C000000,-0724,0829,12082,030.5,045.6,0.471,726.3,01.19,0.508
2014-08-16 02:11:00,1683E-3,5C000000,-0724,0828,12126,030.4,045.6,0.471,726.3,01.19,0.508
2014-08-16 02:12:00,1851E-3,5C000000,-0724,0828,12286,030.4,045.6,0.471,726.3,01.19,0.508
2014-08-16 02:13:00,1910E-3,5C000000,-0724,0829,12287,030.4,045.5,0.471,726.3,01.19,0.508
2014-08-16 02:14:00,1834E-3,5C000000,-0724,0829,12086,030.3,045.6,0.471,726.3,01.19,0.508
2014-08-16 02:15:00,1872E-3,5C000000,-0724,0828,12211,030.3,045.6,0.471,726.3,01.19,0.508
2014-08-16 02:16:00,1876E-3,5C000000,-0724,0828,12193,030.3,045.6,0.471,726.2,01.19,0.508
2014-08-16 02:17:00,1875E-3,5C000000,-0724,0828,12052,030.3,045.6,0.471,726.3,01.19,0.508
2014-08-16 02:18:00,1871E-3,5C000000,-0724,0829,12370,030.3,045.6,0.471,726.2,01.19,0.508
2014-08-16 02:19:00,1797E-3,5C000000,-0724,0828,11998,030.2,045.6,0.471,726.3,01.19,0.508
2014-08-16 02:20:00,1834E-3,5C000000,-0724,0829,12198,030.2,045.5,0.471,726.3,01.19,0.508
2014-08-16 02:21:00,1712E-3,5C000000,-0724,0829,12330,030.2,045.5,0.471,726.3,01.19,0.508
2014-08-16 02:22:00,1796E-3,5C000000,-0724,0828,12085,030.1,045.6,0.472,726.3,01.19,0.508
2014-08-16 02:23:00,1795E-3,5C000000,-0724,0828,12167,030.1,045.6,0.471,726.3,01.19,0.508
2014-08-16 02:24:00,1848E-3,5C000000,-0724,0827,12119,030.1,045.6,0.471,726.3,01.19,0.508
2014-08-16 02:25:00,1880E-3,5C000000,-0724,0828,12121,030.1,045.5,0.472,726.4,01.19,0.508
2014-08-16 02:26:00,1837E-3,5C000000,-0724,0828,12022,030.0,045.5,0.472,726.3,01.19,0.508
2014-08-16 02:27:00,1783E-3,5C000000,-0724,0828,12174,030.0,045.6,0.471,726.4,01.19,0.508
2014-08-16 02:28:00,1697E-3,5C000000,-0724,0828,12246,030.0,045.6,0.472,726.3,01.19,0.508
2014-08-16 02:29:00,1748E-3,5C000000,-0724,0828,12064,030.0,045.5,0.472,726.4,01.19,0.508
2014-08-16 02:30:00,1774E-3,5C000000,-0724,0828,12253,029.9,045.6,0.471,726.3,01.19,0.508
2014-08-16 02:31:00,1831E-3,5C000000,-0724,0828,12087,029.9,045.5,0.472,726.3,01.19,0.508
2014-08-16 02:32:00,1771E-3,5C000000,-0724,0829,12231,029.9,045.6,0.472,726.3,01.19,0.508
2014-08-16 02:33:00,1832E-3,5C000000,-0724,0829,12419,029.9,045.5,0.472,726.4,01.19,0.508
2014-08-16 02:34:00,1635E-3,5C000000,-0724,0828,12236,029.9,045.6,0.472,726.3,01.19,0.508
2014-08-16 02:35:00,1914E-3,5C000000,-0724,0828,12270,029.8,045.6,0.472,726.4,01.19,0.508
2014-08-16 02:36:00,1718E-3,5C000000,-0724,0829,12248,029.8,045.5,0.472,726.4,01.19,0.508
2014-08-16 02:37:00,1813E-3,5C000000,-0724,0828,12197,029.8,045.5,0.472,726.4,01.19,0.508
2014-08-16 02:38:00,2057E-3,5C000000,-0724,0828,12337,029.8,045.6,0.472,726.4,01.19,0.508
2014-08-16 02:39:00,1893E-3,5C000000,-0724,0828,12227,029.8,045.5,0.472,726.4,01.19,0.508
2014-08-16 02:40:00,1843E-3,5C000000,-0724,0828,12195,029.8,045.6,0.472,726.4,01.19,0.508
2014-08-16 02:41:00,1817E-3,5C000000,-0724,0828,12192,029.7,045.5,0.472,726.4,01.19,0.508
2014-08-16 02:42:00,1868E-3,5C000000,-0724,0829,12375,029.7,045.5,0.472,726.4,01.19,0.508
2014-08-16 02:43:00,1779E-3,5C000000,-0724,0828,12241,029.7,045.5,0.472,726.4,01.19,0.508
2014-08-16 02:44:00,1791E-3,5C000000,-0724,0828,12208,029.7,045.5,0.472,726.4,01.19,0.508
2014-08-16 02:45:00,1818E-3,5C000000,-0724,0829,12307,029.6,045.5,0.472,726.4,01.19,0.508
2014-08-16 02:46:00,1766E-3,5C000000,-0724,0827,12118,029.7,045.6,0.472,726.4,01.19,0.508
2014-08-16 02:47:00,1993E-3,5C000000,-0724,0829,12195,029.6,045.6,0.472,726.3,01.19,0.508
2014-08-16 02:48:00,1763E-3,5C000000,-0724,0827,12288,029.6,045.5,0.472,726.4,01.19,0.508
2014-08-16 02:49:00,1740E-3,5C000000,-0724,0827,12240,029.6,045.5,0.472,726.4,01.19,0.508
2014-08-16 02:50:00,1796E-3,5C000000,-0724,0828,12215,029.6,045.5,0.473,726.4,01.19,0.508
2014-08-16 02:51:00,1807E-3,5C000000,-0724,0827,12149,029.6,045.5,0.472,726.4,01.19,0.508
2014-08-16 02:52:00,1818E-3,5C000000,-0724,0828,12108,029.5,045.5,0.472,726.4,01.19,0.508
2014-08-16 02:53:00,1788E-3,5C000000,-0724,0828,12333,029.5,045.5,0.472,726.4,01.19,0.508
2014-08-16 02:54:00,1782E-3,5C000000,-0724,0827,12043,029.5,045.5,0.472,726.4,01.19,0.508
2014-08-16 02:55:00,1853E-3,5C000000,-0724,0828,12164,029.5,045.5,0.473,726.4,01.19,0.508
2014-08-16 02:56:00,1747E-3,5C000000,-0724,0828,12335,029.5,045.5,0.472,726.4,01.19,0.508
2014-08-16 02:57:00,1723E-3,5C000000,-0724,0828,11949,029.5,045.5,0.473,726.4,01.19,0.508
2014-08-16 02:58:00,1815E-3,5C000000,-0724,0828,12005,029.5,045.5,0.472,726.4,01.19,0.508
2014-08-16 02:59:00,1738E-3,5C000000,-0724,0828,12164,029.5,045.5,0.473,726.4,01.19,0.508
2014-08-16 03:00:00,1701E-3,5C000000,-0724,0828,12279,029.5,045.5,0.472,726.4,01.19,0.508
2014-08-16 03:01:00,1661E-3,5C000000,-0724,0829,12101,029.5,045.5,0.473,726.4,01.19,0.508
2014-08-16 03:02:00,1816E-3,5C000000,-0724,0828,12128,029.5,045.5,0.472,726.4,01.19,0.508
2014-08-16 03:03:00,1705E-3,5C000000,-0724,0828,12274,029.5,045.5,0.473,726.4,01.19,0.508
2014-08-16 03:04:00,1806E-3,5C000000,-0724,0828,12318,029.5,045.5,0.472,726.4,01.19,0.508
2014-08-16 03:05:00,1718E-3,5C000000,-0724,0827,12202,029.5,045.5,0.473,726.4,01.19,0.508
2014-08-16 03:06:00,1832E-3,5C000000,-0724,0828,12229,029.5,045.5,0.472,726.4,01.19,0.508
2014-08-16 03:07:00,1729E-3,5C000000,-0724,0829,12099,029.5,045.5,0.472,726.4,01.19,0.508
2014-08-16 03:08:00,1815E-3,5C000000,-0724,0828,12417,029.5,045.5,0.472,726.4,01.19,0.508
2014-08-16 03:09:00,1920E-3,5C000000,-0724,0827,12189,029.5,045.5,0.472,726.5,01.19,0.508
2014-08-16 03:10:00,1846E-3,5C000000,-0724,0828,12285,029.6,045.5,0.472,726.4,01.19,0.508
2014-08-16 03:11:00,1725E-3,5C000000,-0724,0828,12225,029.6,045.5,0.472,726.4,01.19,0.508
2014-08-16 03:12:00,1743E-3,5C000000,-0724,0828,12160,029.6,045.5,0.472,726.4,01.19,0.508
2014-08-16 03:13:00,1876E-3,5C000000,-0724,0829,11946,029.6,045.5,0.472,726.4,01.19,0.508
2014-08-16 03:14:00,1785E-3,5C000000,-0724,0829,12194,029.6,045.5,0.472,726.4,01.19,0.508
2014-08-16 03:15:00,1710E-3,5C000000,-0724,0828,12260,029.6,045.5,0.472,726.4,01.19,0.508
2014-08-16 03:16:00,1851E-3,5C000000,-0724,0829,12176,029.7,045.5,0.472,726.4,01.19,0.508
2014-08-16 03:17:00,1908E-3,5C000000,-0724,0828,12102,029.6,045.5,0.472,726.4,01.19,0.508
2014-08-16 03:18:00,1771E-3,5C000000,-0724,0828,12330,029.6,045.5,0.472,726.4,01.19,0.508
2014-08-16 03:19:00,1825E-3,5C000000,-0724,0828,11928,029.6,045.5,0.472,726.4,01.19,0.508
2014-08-16 03:20:00,1800E-3,5C000000,-0724,0829,12198,029.6,045.5,0.472,726.4,01.19,0.508
2014-08-16 03:21:00,1759E-3,5C000000,-0724,0828,12271,029.6,045.5,0.472,726.4,01.19,0.508
2014-08-16 03:22:00,1733E-3,5C000000,-0724,0828,12332,029.6,045.5,0.472,726.4,01.19,0.508
2014-08-16 03:23:00,1835E-3,5C000000,-0724,0828,12101,029.6,045.5,0.472,726.4,01.19,0.508
2014-08-16 03:24:00,1921E-3,5C000000,-0724,0829,12289,029.6,045.5,0.472,726.4,01.19,0.508
2014-08-16 03:25:00,1788E-3,5C000000,-0724,0828,12263,029.6,045.5,0.473,726.4,01.19,0.508
2014-08-16 03:26:00,1853E-3,5C000000,-0724,0829,11896,029.6,045.5,0.472,726.4,01.19,0.508
2014-08-16 03:27:00,1754E-3,5C000000,-0724,0828,12116,029.6,045.5,0.472,726.4,01.19,0.508
2014-08-16 03:28:00,1871E-3,5C000000,-0724,0828,12075,029.6,045.5,0.472,726.4,01.19,0.508
2014-08-16 03:29:00,1864E-3,5C000000,-0724,0828,12194,029.6,045.5,0.472,726.4,01.19,0.508
2014-08-16 03:30:00,1730E-3,5C000000,-0724,0829,12151,029.5,045.5,0.472,726.4,01.19,0.508
2014-08-16 03:31:00,1789E-3,5C000000,-0724,0828,12340,029.6,045.5,0.472,726.4,01.19,0.508
2014-08-16 03:32:00,1824E-3,5C000000,-0724,0828,12209,029.5,045.5,0.473,726.3,01.19,0.508
2014-08-16 03:33:00,1729E-3,5C000000,-0724,0828,12355,029.5,045.5,0.472,726.3,01.19,0.508
2014-08-16 03:34:00,1775E-3,5C000000,-0724,0828,12068,029.5,045.6,0.472,726.3,01.19,0.508
2014-08-16 03:35:00,1868E-3,5C000000,-0724,0829,12415,029.6,045.5,0.472,726.3,01.19,0.508
2014-08-16 03:36:00,1837E-3,5C000000,-0724,0827,12325,029.5,045.5,0.472,726.3,01.19,0.508
2014-08-16 03:37:00,1845E-3,5C000000,-0724,0828,12302,029.5,045.5,0.472,726.3,01.19,0.508
2014-08-16 03:38:00,1743E-3,5C000000,-0724,0829,12334,029.5,045.5,0.472,726.3,01.19,0.508
2014-08-16 03:39:00,1896E-3,5C000000,-0724,0827,12147,029.5,045.5,0.473,726.3,01.19,0.508
2014-08-16 03:40:00,1768E-3,5C000000,-0724,0828,12292,029.5,045.5,0.472,726.2,01.19,0.508
2014-08-16 03:41:00,1767E-3,5C000000,-0724,0827,12112,029.6,045.5,0.473,726.3,01.19,0.508
2014-08-16 03:42:00,1807E-3,5C000000,-0724,0828,12183,029.6,045.5,0.472,726.3,01.19,0.508
2014-08-16 03:43:00,1751E-3,5C000000,-0724,0827,12294,029.6,045.6,0.472,726.2,01.19,0.508
2014-08-16 03:44:00,1789E-3,5C000000,-0724,0828,12226,029.6,045.6,0.472,726.3,01.19,0.508
2014-08-16 03:45:00,1769E-3,5C000000,-0724,0828,12067,029.6,045.5,0.472,726.2,01.19,0.508
2014-08-16 03:46:00,1719E-3,5C000000,-0724,0828,12118,029.6,045.5,0.472,726.2,01.19,0.508
2014-08-16 03:47:00,1809E-3,5C000000,-0724,0828,12178,029.6,045.5,0.472,726.2,01.19,0.508
2014-08-16 03:48:00,1815E-3,5C000000,-0724,0828,12361,029.7,045.5,0.472,726.3,01.19,0.508
2014-08-16 03:49:00,1812E-3,5C000000,-0724,0827,12277,029.7,045.5,0.472,726.3,01.19,0.508
2014-08-16 03:50:00,1625E-3,5C000000,-0724,0828,12144,029.7,045.5,0.472,726.3,01.19,0.508
2014-08-16 03:51:00,1885E-3,5C000000,-0724,0828,12117,029.7,045.5,0.472,726.3,01.19,0.508
2014-08-16 03:52:00,1777E-3,5C000000,-0724,0828,12278,029.7,045.5,0.472,726.3,01.19,0.508
2014-08-16 03:53:00,1927E-3,5C000000,-0724,0828,12261,029.7,045.6,0.472,726.3,01.19,0.508
2014-08-16 03:54:00,1902E-3,5C000000,-0724,0828,12277,029.7,045.5,0.472,726.3,01.19,0.508
2014-08-16 03:55:00,1896E-3,5C000000,-0724,0828,12056,029.7,045.5,0.472,726.3,01.19,0.508
2014-08-16 03:56:00,1884E-3,5C000000,-0724,0828,12300,029.8,045.5,0.471,726.3,01.19,0.508
2014-08-16 03:57:00,1715E-3,5C000000,-0724,0829,12175,029.8,045.5,0.472,726.3,01.19,0.508
2014-08-16 03:58:00,1809E-3,5C000000,-0724,0829,12210,029.8,045.5,0.472,726.3,01.19,0.508
2014-08-16 03:59:00,1731E-3,5C000000,-0724,0828,11950,029.8,045.5,0.472,726.3,01.19,0.508
2014-08-16 04:00:00,1874E-3,5C000000,-0724,0828,12275,029.8,045.5,0.472,726.4,01.19,0.508
2014-08-16 04:01:00,1870E-3,5C000000,-0724,0829,12159,029.9,045.5,0.471,726.3,01.19,0.508
2014-08-16 04:02:00,1846E-3,5C000000,-0724,0829,12154,029.9,045.5,0.472,726.4,01.19,0.508
2014-08-16 04:03:00,1901E-3,5C000000,-0724,0828,12245,029.9,045.5,0.472,726.3,01.19,0.508
2014-08-16 04:04:00,1845E-3,5C000000,-0724,0828,12156,029.9,045.5,0.471,726.3,01.19,0.508
2014-08-16 04:05:00,1784E-3,5C000000,-0724,0828,12073,029.9,045.5,0.471,726.3,01.19,0.508
2014-08-16 04:06:00,1796E-3,5C000000,-0724,0828,12252,029.9,045.6,0.472,726.4,01.19,0.508
2014-08-16 04:07:00,1710E-3,5C000000,-0724,0829,12190,030.0,045.5,0.471,726.4,01.19,0.508
2014-08-16 04:08:00,1771E-3,5C000000,-0724,0828,12331,030.0,045.5,0.471,726.4,01.19,0.508
2014-08-16 04:09:00,1737E-3,5C000000,-0724,0828,12189,030.0,045.6,0.472,726.4,01.19,0.508
2014-08-16 04:10:00,1773E-3,5C000000,-0724,0828,12166,030.0,045.6,0.472,726.3,01.19,0.508
2014-08-16 04:11:00,1853E-3,5C000000,-0724,0828,12290,030.0,045.6,0.471,726.4,01.19,0.508
2014-08-16 04:12:00,1751E-3,5C000000,-0724,0828,12205,030.0,045.6,0.471,726.4,01.19,0.508
2014-08-16 04:13:00,1761E-3,5C000000,-0724,0828,12128,030.0,045.6,0.472,726.4,01.19,0.508
2014-08-16 04:14:00,1823E-3,5C000000,-0724,0828,12169,030.1,045.6,0.471,726.3,01.19,0.508
2014-08-16 04:15:00,1790E-3,5C000000,-0724,0828,12226,030.1,045.6,0.471,726.4,01.19,0.508
2014-08-16 04:16:00,1846E-3,5C000000,-0724,0829,12311,030.1,045.6,0.472,726.4,01.19,0.508
2014-08-16 04:17:00,1868E-3,5C000000,-0724,0828,12227,030.1,045.6,0.472,726.4,01.19,0.508
2014-08-16 04:18:00,1918E-3,5C000000,-0724,0829,12366,030.1,045.6,0.471,726.4,01.19,0.508
2014-08-16 04:19:00,1615E-3,5C000000,-0724,0828,11890,030.1,045.6,0.471,726.4,01.19,0.508
2014-08-16 04:20:00,1854E-3,5C000000,-0724,0827,12346,030.1,045.5,0.471,726.3,01.19,0.508